Location: Newark
(46.7000°N, 60.6000°W)
Time: 23:01:41
(UTC+00:00)

Vanguard 3 - Pass Details

Date: 02 November 2020
Orbit: 508 x 3262 km, 33.3° (Epoch: 29 November)

Event Time Altitude Azimuth Distance (km) Brightness Sun altitude
Rises 16:00:53 0° 275° (W) 7,209 12.0 28.2°
Reaches altitude 10° 16:11:52 10° 247° (WSW) 5,830 12.0 28.0°
Maximum altitude 16:15:37 11° 235° (SW) 5,530 12.1 27.9°
Drops below altitude 10° 16:19:09 10° 222° (SW) 5,377 12.4 27.8°
Sets 16:27:41 0° 192° (SSW) 5,643 12.7 27.5°
